www.pogodaiklimat.ru

Погода и климат >> Архив погоды >> Нигер >> Maine-Soroa


ПОГОДА в Maine-Soroa

  • Прогноз погоды в Maine-Soroa
  • Монитор погоды в Maine-Soroa
  • Климат города

АРХИВ ПОГОДЫ в Maine-Soroa

Время (UTC), дата Ветер
(напр.,м/с)
 
Видим.   Явления Облачность Т
(С)
Тd
(С)
f
(%)
Тe
(С)
Тes
(С)
Комфортность P
(гПа)
Po
(гПа)
Тmin
(С)
Tmax
(С)
R
(мм)
R24
(мм)
S
(см)
21 7.08 штиль 0 10 км 9/0
[Cs]
+26.4 +22.5 79 +35 +35 очень
душно
1012.5 974.8
03 8.08 штиль 0 10 км 9/0
[Cs]
+24.6 +22.2 87 +32 +32 очень
душно
1011.2 973.8
06 8.08 штиль 0 15 км 9/0
[Cs]
+24.5 +21.7 84 +31 +33 очень
душно
1012.5 974.8 +24.0
09 8.08 З 4 15 км 9/0
[Ac lent Ci sp]
+30.0 +20.8 58 +37 +44 очень
душно
1014.2 976.6
12 8.08 С 4 15 км 9/6 1200 м
[Cu med, cong Ci sp]
+32.6 +20.8 50 +40 +45 очень
душно
1011.9 974.5
15 8.08 З 4 15 км 9/3 1200 м
[Cu Sc Ac As Ci sp]
+29.5 +21.5 62 +37 +39 очень
душно
1010.0 972.5
18 8.08 ЮЗ 2 15 км зарница {гроза, дождь} 10/3 1200 м
[Cb cap Ac As]
+23.4 +21.4 89 +32 +32 очень
душно
1011.3 973.3 +34.4 27
21 8.08 штиль 0 10 км 10/0
[Ac As]
+23.6 +21.9 90 +30 +30 очень
душно
1012.7 975.1
03 9.08 штиль 0 10 км 9/0
[Cs]
+22.5 +21.5 94 +30 +30 очень
душно
1010.9 973.2
06 9.08 ЮЗ 2 15 км 9/3 600 м
[St Cs]
+23.0 +21.9 94 +31 +32 очень
душно
1012.9 974.7 +22.4 27
09 9.08 З 4 15 км 9/5 1200 м
[Cu med, cong Ci sp]
+26.0 +22.2 80 +34 +38 очень
душно
1014.4 976.4
12 9.08 З 4 15 км 9/4 1200 м
[Cu med, cong Ci sp]
+29.5 +23.9 72 +41 +48 опасность
перегрева
1012.0 974.3
15 9.08 СЗ 4 15 км гроза без осадков 10/3 1200 м
[Cb cap Ac As]
+26.6 +22.6 79 +35 +36 очень
душно
1010.1 972.2
18 9.08 штиль 0 10 км гроза, ливневой дождь 10/4 1200 м
[Cb cap Ac As]
+21.6 +20.7 95 +27 +27 душно 1013.7 975.4 +32.0 30
21 9.08 штиль 0 10 км {гроза, дождь} 9/0
[Ac As Ci sp]
+22.5 +21.3 93 +30 +30 очень
душно
1012.7 974.7
03 10.08 штиль 0 10 км 9/0
[Cs]
+22.2 +21.6 96 +29 +29 очень
душно
1012.3 974.3
06 10.08 штиль 0 10 км 9/0
[Cs]
+22.0 +21.3 96 +29 +30 очень
душно
1014.0 975.6 +21.2 37
09 10.08 ЮЗ 4 15 км 6/1 1000 м
[Sc Ci sp]
+26.8 +23.4 82 +36 +45 очень
душно
1013.7 975.7
12 10.08 Ю 2 15 км 6/3 1500 м
[Cu hum Ci sp]
+30.5 +25.7 76 +45 +59 опасность
перегрева
1012.4 974.7
15 10.08 З 2 15 км 9/4 1200 м
[Cu med, cong Ci sp]
+32.0 +22.1 56 +41 +45 опасность
перегрева
1011.0 973.4
18 10.08 штиль 0 15 км 9/0
[Cs]
+29.0 +24.8 78 +41 +41 опасность
перегрева
1010.9 973.1 +33.0
21 10.08 штиль 0 10 км 9/0
[Cs]
+27.0 +24.9 88 +39 +39 очень
душно
1012.9 974.8
03 11.08 штиль 0 10 км 9/0
[Cs]
+25.0 +23.3 90 +33 +33 очень
душно
1011.6 974.1
06 11.08 штиль 0 15 км 9/0
[Cs]
+25.0 +22.9 88 +33 +35 очень
душно
1011.6 974.0 +24.0
09 11.08 З 2 15 км 9/0
[Cs]
+31.0 +22.4 60 +40 +53 опасность
солнечного
удара
1012.8 975.4
12 11.08 Ю 2 15 км 9/4 1200 м
[Cu hum Ci sp]
+33.5 +21.2 49 +41 +52 опасность
перегрева
1011.4 974.1
15 11.08 З 4 15 км 9/3 1200 м
[Cu hum Ac trans Ci sp]
+34.0 +21.0 47 +41 +43 опасность
перегрева
1008.9 971.7
18 11.08 Ю 4 15 км 9/0
[Ac trans Cs]
+28.6 +23.2 73 +39 +39 очень
душно
1009.3 971.7 +35.4
21 11.08 штиль 0 10 км 9/0
[Cs]
+27.0 +23.3 80 +36 +36 очень
душно
1010.2 972.9
03 12.08 штиль 0 10 км 9/0
[Cs]
+25.4 +22.8 86 +34 +34 очень
душно
1008.1 970.9
06 12.08 З 4 15 км 9/0
[Ac lent Cs]
+25.4 +23.1 87 +34 +34 очень
душно
1009.7 972.2 +24.8
09 12.08 Ю 2 15 км 9/3 1200 м
[Cb cap Ac As Ci sp]
+30.5 +22.7 63 +40 +46 очень
душно
1011.5 974.1
12 12.08 З 4 15 км 9/0
[Ac As Ci sp]
+28.2 +22.8 73 +38 +43 очень
душно
1009.5 972.0
15 12.08 ЮЗ 4 15 км 9/0
[Cs]
+30.8 +24.9 71 +44 +48 опасность
перегрева
1007.3 969.9
18 12.08 штиль 0 15 км 9/0
[Cs]
+27.5 +20.2 64 +34 +34 очень
душно
1007.4 969.9 +33.0
21 12.08 В 8 10 км зарница 9/3 1200 м
[Cb cap Ac As Ci sp]
+25.4 +18.3 65 +30 +30 душно 1011.8 974.3
00 13.08 В 8 10 км зарница 9/3 1200 м
[Cb cap Ac As Ci sp]
+25.4 +18.3 65 +30 +30 душно 1011.8 974.3
03 13.08 штиль 0 10 км 9/0
[Ac As Ci sp]
+22.6 +20.1 86 +29 +29 очень
душно
1009.2 971.6
06 13.08 ЮЗ 2 15 км 9/0
[Ac lent Cs]
+22.8 +19.6 82 +29 +30 очень
душно
1010.6 972.7 +21.5 0.9
09 13.08 ЮЗ 4 15 км 9/0
[Ac trans Cs]
+27.5 +23.2 77 +37 +44 очень
душно
1012.1 974.5
12 13.08 З 4 15 км 9/0
[Cs]
+31.0 +24.0 66 +43 +54 опасность
перегрева
1010.6 973.0
15 13.08 З 4 15 км 9/1 1500 м
[Cu hum Cs]
+32.0 +28.0 79 +52 +56 опасность
перегрева
1008.6 971.2
18 13.08 штиль 0 15 км 9/0
[Cs]
+29.0 +22.7 69 +38 +38 очень
душно
1008.6 971.0 +33.4
21 13.08 штиль 0 10 км 9/0
[Cs]
+26.7 +22.8 79 +35 +35 очень
душно
1010.7 973.1
03 14.08 штиль 0 15 км 9/0
[Cs]
+25.4 +23.4 89 +34 +34 очень
душно
1010.5 973.2
06 14.08 ЮЗ 2 15 км 9/0
[Ac trans Cs]
+25.0 +23.0 89 +33 +34 очень
душно
1011.7 974.1 +24.4
09 14.08 З 4 15 км 9/3 1200 м
[Cb cap Ac As Ci sp]
+28.6 +21.9 67 +37 +41 очень
душно
1013.8 976.2
12 14.08 Ю 2 10 км гроза, ливневой дождь 10/3 1200 м
[Cb cap Ac As]
+25.2 +23.8 92 +34 +39 очень
душно
1014.3 976.4 0.7
15 14.08 Ю 2 15 км {гроза, дождь} 10/0
[Ac As]
+25.5 +23.7 90 +35 +37 очень
душно
1012.5 974.6

 

Местоположение метеостанции Maine-Soroa (Нигер): широта 13.23 долгота 11.98 высота над уровнем моря 337 м.

В архиве по умолчанию представлена погода в Maine-Soroa за последнюю неделю. Архивные данные за месяц целиком и за предыдущие месяцы, начиная с января 2011 года, Вы можете получить, выбрав интересующий диапазон дат из раскрывающегося списка и нажав кнопку "Ввод!".


*Определитесь, кто Вы:
робот инопланетянин человек

Внимание! Время в таблицах - всемирное. Для получения местного времени необходимо прибавить поправку, которая в Maine-Soroa равна 1 ч.

Смотрите также архив погоды в соседних городах и на ближайших метеорологических станциях:

Погода в Diffa (Нигер) (89 км)
Погода в Nguigmi (Нигер) (167 км)
Погода в Goure (Нигер) (200 км)
Погода в Bol-Berim (Чад) (300 км)
Погода в Zinder (Нигер) (330 км)
Погода в Magaria (Нигер) (332 км)
Погода в Ndjamena (Чад) (353 км)
Погода в Mao (Чад) (377 км)
Погода в Cano (Нигерия) (397 км)
Погода в Yola (Нигерия) (448 км)

Пояснения к столбцам:

Ветер - указаны скорость ветра в м/с - средняя за 10 мин, порывы в срок и между сроками (в фигурных скобках) и направление, откуда дует ветер: С - северный, СВ - северо-восточный, В - восточный, ЮВ - юго-восточный, Ю - южный, ЮЗ - юго-западный, З - западный, СЗ - северо-западный.
Видимость - горизонтальная дальность видимости в метрах или километрах. При видимости от 1 до 10 км при отсутствии осадков обычно наблюдается дымка, при ухудшении видимости до 1 км и менее - туман. В сухую погоду видимость может ухудшаться дымом, пылью или мглою.
Явления - указаны атмосферные явления, наблюдавшиеся в срок или в последний час перед сроком; фигурными скобками обозначены явления, наблюдавшиеся между сроками (за 1-3 часа до срока); квадратными скобками обозначены град или гололедные отложения с указанием их диаметра в мм.
Облачность - указаны через наклонную черту общая и нижняя облачность в баллах и высота нижней границы облаков в метрах; квадратными скобками обозначены формы облаков: Ci - перистые, Cs - перисто-слоистые, Cc - перисто-кучевые, Ac - высококучевые, As - высокослоистые, Sc - слоисто-кучевые, Ns - слоисто-дождевые, Cu - кучевые, Cb - кучево-дождевые. Подробнее классификацию облаков см. в Атласе облаков (PDF).
T - Температура воздуха - температура, измеренная на высоте 2 м над землей.
Td - Температура точки росы - температура, при понижении до которой содержащийся в воздухе водяной пар достигнет насыщения.
f - Относительная влажность воздуха - влажноcть воздуха, измеренная на высоте 2 м над землей.
Te - Эффективная температура - температура, которую ощущает одетый по сезону человек в тени. Характеристика душности погоды. При расчете учитывается влияние влажности воздуха и скорости ветра на теплоощущения человека.
Tes - Эффективная температура на солнце - температура, которую ощущает человек, с поправкой на солнечный нагрев. Характеристика знойности погоды. Зависит от высоты солнца над горизонтом, облачности и скорости ветра. Ночью, в пасмурную погоду, а также при ветре 12 м/с и более поправка равна нулю.
P - Атмосферное давление - приведенное к уровню моря атмосферное давление.
Po - Атмосферное давление - измеренное на уровне метеостанции атмосферное давление.
Tmin - Минимальная температура - минимум температуры воздуха на высоте 2 м над землей.
Tmax - Максимальная температура - максимум температуры воздуха на высоте 2 м над землей.
R - Количество осадков - Количество выпавших осадков за период времени, мм. При наведении курсора мыши на число - период времени, за который выпало указанное количество осадков.
R24 - Количество осадков - Количество выпавших осадков за 24 часа, мм.
S - Снежный покров - Высота снежного покрова, см. При наведении курсора мыши на число - состояние снежного покрова и степень покрытия местности в баллах.